FW8182 Weather Reports


time (UTC)temp
F
wind
direction
speed
knots
gust
knots
rain 1hr
in
rain 24hr
in
rain mn
in
humidity
%
barometer
mb
20260508153010 59 281 0.0 0.0 0.00 0.00 0.00 32 1008.6
20260508152514 59 282 0.0 0.0 0.00 0.00 0.00 32 1008.7
20260508152007 58 301 0.0 0.0 0.00 0.00 0.00 33 1008.6
20260508151507 58 301 0.0 0.0 0.00 0.00 0.00 32 1008.8
20260508151008 58 302 0.0 0.0 0.00 0.00 0.00 32 1008.8
20260508150506 57 302 0.0 0.0 0.00 0.00 0.00 32 1009.0
20260508150005 57 315 0.0 0.0 0.00 0.00 0.00 33 1009.0
20260508145505 57 315 0.0 0.0 0.00 0.00 0.00 33 1009.1
20260508145004 57 315 0.0 0.0 0.00 0.00 0.00 33 1009.1
20260508144504 57 315 0.0 0.0 0.00 0.00 0.00 33 1009.2
20260508144004 57 315 0.0 0.0 0.00 0.00 0.00 33 1009.2
20260508143502 57 315 0.0 0.0 0.00 0.00 0.00 32 1009.1
20260508143004 58 315 0.0 0.0 0.00 0.00 0.00 32 1009.2
20260508142502 58 315 0.0 0.0 0.00 0.00 0.00 29 1009.2
20260508142002 58 315 0.0 0.0 0.00 0.00 0.00 28 1009.2
20260508141501 58 317 0.0 0.0 0.00 0.00 0.00 28 1009.2
20260508141100 57 338 0.0 0.0 0.00 0.00 0.00 30 1009.2
20260508140559 57 338 0.0 0.0 0.00 0.00 0.00 29 1009.2
20260508140059 57 319 0.0 0.0 0.00 0.00 0.00 29 1009.2
20260508135557 56 323 0.0 0.0 0.00 0.00 0.00 30 1009.2
20260508135056 56 323 0.0 0.0 0.00 0.00 0.00 31 1009.3
20260508134612 55 323 0.0 0.0 0.00 0.00 0.00 31 1009.3
20260508134054 55 323 0.0 0.0 0.00 0.00 0.00 31 1009.3
20260508133552 54 323 0.0 0.0 0.00 0.00 0.00 32 1009.3
20260508133050 54 323 0.0 0.0 0.00 0.00 0.00 33 1009.3
20260508132550 53 323 0.0 0.0 0.00 0.00 0.00 33 1009.3
20260508132051 53 323 0.0 0.0 0.00 0.00 0.00 34 1009.2
20260508131550 52 323 0.0 0.0 0.00 0.00 0.00 35 1009.2
20260508131050 52 323 0.0 0.0 0.00 0.00 0.00 35 1009.3
20260508130549 52 323 0.0 0.0 0.00 0.00 0.00 35 1009.2
20260508130049 51 323 0.0 0.0 0.00 0.00 0.00 35 1009.2
20260508125549 51 323 0.0 0.0 0.00 0.00 0.00 36 1009.2
20260508125049 51 323 0.0 0.0 0.00 0.00 0.00 35 1009.2
20260508124557 50 323 0.0 0.0 0.00 0.00 0.00 35 1009.2
20260508124047 50 323 0.0 0.0 0.00 0.00 0.00 36 1009.2
20260508123548 50 323 0.0 0.0 0.00 0.00 0.00 36 1009.2
20260508123051 50 323 0.0 0.0 0.00 0.00 0.00 36 1009.2
20260508122547 50 323 0.0 0.0 0.00 0.00 0.00 36 1009.3
20260508122047 49 323 0.0 0.0 0.00 0.00 0.00 36 1009.2
20260508121547 49 323 0.0 0.0 0.00 0.00 0.00 36 1009.2
20260508121047 49 323 0.0 0.0 0.00 0.00 0.00 36 1009.3
20260508120550 49 323 0.0 0.0 0.00 0.00 0.00 36 1009.3
20260508120046 49 323 0.0 0.0 0.00 0.00 0.00 36 1009.3
20260508115546 49 323 0.0 0.0 0.00 0.00 0.00 36 1009.4
20260508115046 49 323 0.0 0.0 0.00 0.00 0.00 36 1009.4
20260508114544 50 323 0.0 0.0 0.00 0.00 0.00 36 1009.4
20260508114044 50 323 0.0 0.0 0.00 0.00 0.00 36 1009.3
20260508113545 50 323 0.0 0.0 0.00 0.00 0.00 36 1009.4
20260508113057 50 323 0.0 0.0 0.00 0.00 0.00 36 1009.5
20260508112543 50 323 0.0 0.0 0.00 0.00 0.00 35 1009.5
20260508112041 50 323 0.0 0.0 0.00 0.00 0.00 35 1009.4
20260508111544 50 323 0.0 0.0 0.00 0.00 0.00 35 1009.6
20260508111042 50 323 0.0 0.0 0.00 0.00 0.00 35 1009.5
20260508110541 50 323 0.0 0.0 0.00 0.00 0.00 35 1009.6
20260508110040 51 323 0.0 0.0 0.00 0.00 0.00 35 1009.6
20260508105539 51 323 0.0 0.0 0.00 0.00 0.00 35 1009.7
20260508105040 51 323 0.0 0.0 0.00 0.00 0.00 34 1009.8
20260508104539 51 323 0.0 0.0 0.00 0.00 0.00 34 1009.7
20260508104038 51 323 0.0 0.0 0.00 0.00 0.00 34 1009.8
20260508103538 51 323 0.0 0.0 0.00 0.00 0.00 34 1009.8
20260508103039 51 323 0.0 0.0 0.00 0.00 0.00 34 1009.9
20260508102537 51 323 0.0 0.0 0.00 0.00 0.00 34 1009.9
20260508102041 51 323 0.0 0.0 0.00 0.00 0.00 34 1009.8
20260508101536 51 323 0.0 0.0 0.00 0.00 0.00 34 1009.8
20260508101035 51 323 0.0 0.0 0.00 0.00 0.00 34 1009.9
20260508100537 51 323 0.0 0.0 0.00 0.00 0.00 34 1009.9
20260508100035 51 323 0.0 0.0 0.00 0.00 0.00 35 1010.0
20260508095536 50 323 0.0 0.0 0.00 0.00 0.00 35 1010.0
20260508095034 51 323 0.0 0.0 0.00 0.00 0.00 35 1010.1
20260508094533 51 323 0.0 0.0 0.00 0.00 0.00 35 1010.0
20260508094033 50 323 0.0 0.0 0.00 0.00 0.00 35 1010.1
20260508093533 50 323 0.0 0.0 0.00 0.00 0.00 35 1010.0
20260508093033 50 323 0.0 0.0 0.00 0.00 0.00 35 1010.0
20260508092534 50 323 0.0 0.0 0.00 0.00 0.00 35 1010.1
20260508092032 50 323 0.0 0.0 0.00 0.00 0.00 35 1010.1
20260508091541 50 323 0.0 0.0 0.00 0.00 0.00 35 1010.2
20260508091032 50 323 0.0 0.0 0.00 0.00 0.00 35 1010.2
20260508090531 50 323 0.0 0.0 0.00 0.00 0.00 35 1010.3
20260508090038 50 323 0.0 0.0 0.00 0.00 0.00 35 1010.4
20260508085529 50 323 0.0 0.0 0.00 0.00 0.00 35 1010.4
20260508085028 50 323 0.0 0.0 0.00 0.00 0.00 34 1010.4
20260508084528 50 323 0.0 0.0 0.00 0.00 0.00 34 1010.4
20260508084027 50 323 0.0 0.0 0.00 0.00 0.00 34 1010.5
20260508083527 50 323 0.0 0.0 0.00 0.00 0.00 34 1010.5
20260508083025 50 323 0.0 0.0 0.00 0.00 0.00 34 1010.6
20260508082525 50 323 0.0 0.0 0.00 0.00 0.00 34 1010.7
20260508082024 50 323 0.0 0.0 0.00 0.00 0.00 34 1010.7
20260508081524 50 323 0.0 0.0 0.00 0.00 0.00 34 1010.8
20260508081023 51 323 0.0 0.0 0.00 0.00 0.00 33 1010.8
20260508080522 51 323 0.0 0.0 0.00 0.00 0.00 33 1010.9
20260508080031 51 323 0.0 0.0 0.00 0.00 0.00 33 1010.9
20260508075521 51 323 0.0 0.0 0.00 0.00 0.00 33 1011.0
20260508075019 51 323 0.0 0.0 0.00 0.00 0.00 32 1011.0
20260508074527 52 323 0.0 0.0 0.00 0.00 0.00 32 1011.0
20260508074018 52 323 0.0 0.0 0.00 0.00 0.00 32 1011.1
20260508073518 52 323 0.0 0.0 0.00 0.00 0.00 32 1011.2
20260508073017 52 323 0.0 0.0 0.00 0.00 0.00 32 1011.1
20260508072516 52 323 0.0 0.0 0.00 0.00 0.00 32 1011.2
20260508072016 52 323 0.0 0.0 0.00 0.00 0.00 32 1011.1
20260508071525 52 323 0.0 0.0 0.00 0.00 0.00 31 1011.2
20260508071017 52 323 0.0 0.0 0.00 0.00 0.00 31 1011.2
20260508070517 52 323 0.0 0.0 0.00 0.00 0.00 32 1011.2
20260508070016 52 323 0.0 0.0 0.00 0.00 0.00 32 1011.3
20260508065514 52 323 0.0 0.0 0.00 0.00 0.00 31 1011.2
20260508065019 52 323 0.0 0.0 0.00 0.00 0.00 31 1011.3
20260508064519 52 323 0.0 0.0 0.00 0.00 0.00 31 1011.3
20260508064013 52 323 0.0 0.0 0.00 0.00 0.00 31 1011.3
20260508063514 52 323 0.0 0.0 0.00 0.00 0.00 31 1011.3
20260508063013 52 323 0.0 0.0 0.00 0.00 0.00 31 1011.3
20260508062512 52 323 0.0 0.0 0.00 0.00 0.00 31 1011.3
20260508062013 52 323 0.0 0.0 0.00 0.00 0.00 31 1011.3
20260508061512 53 323 0.0 0.0 0.00 0.00 0.00 31 1011.4
20260508061010 53 323 0.0 0.0 0.00 0.00 0.00 31 1011.4
20260508060510 53 323 0.0 0.0 0.00 0.00 0.00 31 1011.4
20260508060008 53 323 0.0 0.0 0.00 0.00 0.00 31 1011.4
20260508055508 54 323 0.0 0.0 0.00 0.00 0.00 31 1011.5
20260508055008 54 323 0.0 0.0 0.00 0.00 0.00 31 1011.4
20260508054509 54 325 0.0 0.0 0.00 0.00 0.00 30 1011.4
20260508054007 54 325 0.0 0.0 0.00 0.00 0.00 30 1011.4
20260508053507 54 325 0.0 0.0 0.00 0.00 0.00 30 1011.3
20260508053007 54 325 0.0 0.0 0.00 0.00 0.00 30 1011.4
20260508052507 54 325 0.0 0.0 0.00 0.00 0.00 30 1011.4
20260508052007 54 325 0.0 0.0 0.00 0.00 0.00 30 1011.4
20260508051506 54 325 0.0 0.0 0.00 0.00 0.00 30 1011.5
20260508051006 54 325 0.0 0.0 0.00 0.00 0.00 30 1011.6
20260508050506 54 325 0.0 0.0 0.00 0.00 0.00 30 1011.7
20260508050005 55 325 0.0 0.0 0.00 0.00 0.00 30 1011.7
20260508045507 55 325 0.0 0.0 0.00 0.00 0.00 30 1011.7
20260508045005 55 325 0.0 0.0 0.00 0.00 0.00 29 1011.7
20260508044505 55 325 0.0 0.0 0.00 0.00 0.00 29 1011.7
20260508044007 55 325 0.0 0.0 0.00 0.00 0.00 29 1011.8
20260508043507 55 329 0.0 0.0 0.00 0.00 0.00 29 1011.8
20260508043004 56 331 0.0 0.0 0.00 0.00 0.00 29 1011.9
20260508042503 56 333 0.0 7.0 0.00 0.00 0.00 28 1012.0
20260508042005 56 328 0.0 10.4 0.00 0.00 0.00 28 1011.9
20260508041504 56 299 0.0 9.6 0.00 0.00 0.00 28 1011.9
20260508041003 56 355 0.9 11.3 0.00 0.00 0.00 28 1011.9
20260508040505 56 306 3.5 14.8 0.00 0.00 0.00 28 1011.9
20260508040009 56 319 0.9 14.8 0.00 0.00 0.00 28 1011.8
20260508035502 56 355 1.7 11.3 0.00 0.00 0.00 28 1011.7
20260508035002 56 331 0.0 2.6 0.00 0.00 0.00 28 1011.7
20260508034506 56 330 0.0 7.8 0.00 0.00 0.00 28 1011.7
20260508034001 56 305 0.9 12.2 0.00 0.00 0.00 28 1011.5
20260508033503 56 309 0.0 12.2 0.00 0.00 0.00 28 1011.5
20260508033001 56 342 1.7 12.2 0.00 0.00 0.00 28 1011.3
20260508032501 56 355 1.7 12.2 0.00 0.00 0.00 27 1011.3
20260508032005 56 333 0.9 10.4 0.00 0.00 0.00 27 1011.3
20260508031503 57 291 0.0 10.4 0.00 0.00 0.00 27 1011.2
20260508031001 57 346 0.0 20.0 0.00 0.00 0.00 27 1011.2
20260508030515 57 296 0.0 20.0 0.00 0.00 0.00 27 1011.3
20260508030001 57 338 1.7 16.5 0.00 0.00 0.00 26 1011.3
20260508025500 57 336 1.7 16.5 0.00 0.00 0.00 26 1011.2
20260508025001 57 340 0.9 11.3 0.00 0.00 0.00 26 1011.1
20260508024501 57 337 0.0 10.4 0.00 0.00 0.00 26 1011.2
20260508024100 57 307 0.0 12.2 0.00 0.00 0.00 26 1011.1
20260508023600 58 324 0.0 12.2 0.00 0.00 0.00 25 1011.0
20260508023100 58 345 0.0 7.0 0.00 0.00 0.00 25 1010.9
20260508022559 58 342 0.0 8.7 0.00 0.00 0.00 25 1010.8
20260508022100 58 348 0.0 8.7 0.00 0.00 0.00 24 1010.8
20260508021559 59 360 0.0 8.7 0.00 0.00 0.00 24 1010.7
20260508021058 59 344 0.0 8.7 0.00 0.00 0.00 24 1010.7
20260508020603 59 326 0.0 8.7 0.00 0.00 0.00 24 1010.6
20260508020108 59 338 0.0 15.6 0.00 0.00 0.00 23 1010.5
20260508015604 60 346 0.0 17.4 0.00 0.00 0.00 22 1010.5
20260508015058 60 329 0.0 17.4 0.00 0.00 0.00 22 1010.4
20260508014559 60 312 0.0 7.8 0.00 0.00 0.00 22 1010.4
20260508014102 60 322 0.0 8.7 0.00 0.00 0.00 21 1010.4
20260508013600 61 288 0.0 12.2 0.00 0.00 0.00 23 1010.3
20260508013057 61 263 0.0 9.6 0.00 0.00 0.00 22 1010.3
20260508012557 61 275 0.9 12.2 0.00 0.00 0.00 22 1010.3
20260508012057 62 299 0.9 12.2 0.00 0.00 0.00 22 1010.3
20260508011557 62 305 0.0 8.7 0.00 0.00 0.00 22 1010.3
20260508011055 62 304 0.9 6.1 0.00 0.00 0.00 22 1010.3
20260508010556 62 279 0.0 6.1 0.00 0.00 0.00 22 1010.2
20260508010056 62 32 0.0 2.6 0.00 0.00 0.00 21 1010.1
20260508005555 63 33 0.0 8.7 0.00 0.00 0.00 21 1010.2
20260508005057 63 44 0.9 8.7 0.00 0.00 0.00 20 1010.2
20260508004609 64 236 0.0 8.7 0.00 0.00 0.00 20 1010.2
20260508004054 64 225 0.0 6.1 0.00 0.00 0.00 20 1010.3
20260508003553 64 231 0.0 10.4 0.00 0.00 0.00 20 1010.2
20260508003053 64 222 1.7 10.4 0.00 0.00 0.00 19 1010.3
20260508002553 65 217 0.0 5.2 0.00 0.00 0.00 18 1010.4
20260508002052 65 233 0.0 5.2 0.00 0.00 0.00 19 1010.4
20260508001552 66 143 0.0 4.3 0.00 0.00 0.00 19 1010.4
20260508001051 66 186 0.0 0.0 0.00 0.00 0.00 19 1010.5
20260508000550 65 144 0.0 0.0 0.00 0.00 0.00 19 1010.6
20260508000049 65 146 0.0 0.0 0.00 0.00 0.00 18 1010.8
20260507235549 65 141 0.0 0.0 0.00 0.00 0.00 18 1010.9
20260507235048 65 220 0.0 0.0 0.00 0.00 0.00 18 1011.0
20260507234547 65 142 0.0 7.8 0.00 0.00 0.00 17 1011.0
20260507234046 66 217 0.9 7.8 0.00 0.00 0.00 18 1011.2
20260507233547 66 153 0.0 1.7 0.00 0.00 0.00 18 1011.2
20260507233044 65 202 0.0 1.7 0.00 0.00 0.00 17 1011.3
20260507232543 65 204 0.0 5.2 0.00 0.00 0.00 18 1011.4
20260507232043 66 113 0.0 5.2 0.00 0.00 0.00 17 1011.5
20260507231547 66 190 0.0 4.3 0.00 0.00 0.00 18 1011.5
20260507231042 66 164 0.0 6.1 0.00 0.00 0.00 17 1011.8
20260507230542 66 136 0.9 7.0 0.00 0.00 0.00 17 1011.9
20260507230039 65 195 0.0 6.1 0.00 0.00 0.00 18 1012.1
20260507225539 65 182 0.0 7.8 0.00 0.00 0.00 18 1012.1
20260507225041 65 213 0.0 7.8 0.00 0.00 0.00 18 1012.2
20260507224538 66 205 0.0 7.8 0.00 0.00 0.00 17 1012.1
20260507224040 66 196 0.9 8.7 0.00 0.00 0.00 17 1012.3
20260507223540 66 194 0.9 8.7 0.00 0.00 0.00 17 1012.2
20260507223036 66 148 0.0 7.8 0.00 0.00 0.00 17 1012.5
20260507222535 65 221 0.0 7.8 0.00 0.00 0.00 17 1012.6
20260507222037 65 205 0.0 1.7 0.00 0.00 0.00 18 1012.6
20260507221534 65 231 0.0 1.7 0.00 0.00 0.00 17 1012.9
20260507221033 65 153 0.0 0.0 0.00 0.00 0.00 17 1012.9
20260507220531 64 198 0.0 9.6 0.00 0.00 0.00 16 1013.0
20260507220031 65 187 0.0 9.6 0.00 0.00 0.00 17 1013.1
20260507215530 64 209 0.0 7.0 0.00 0.00 0.00 17 1013.2
20260507215029 64 225 0.9 5.2 0.00 0.00 0.00 17 1013.3
20260507214530 64 208 0.0 7.8 0.00 0.00 0.00 18 1013.4
20260507214027 63 210 0.0 12.2 0.00 0.00 0.00 18 1013.6
20260507213529 64 221 0.0 2.6 0.00 0.00 0.00 17 1013.7
20260507213026 64 212 0.0 6.1 0.00 0.00 0.00 18 1013.8
20260507212524 63 188 0.0 6.1 0.00 0.00 0.00 17 1013.9
20260507212026 63 235 0.0 11.3 0.00 0.00 0.00 18 1014.2
20260507211523 63 240 0.0 11.3 0.00 0.00 0.00 17 1014.2
20260507211022 63 232 0.0 9.6 0.00 0.00 0.00 17 1014.2
20260507210522 64 229 0.9 9.6 0.00 0.00 0.00 18 1014.3
20260507210034 63 219 0.0 9.6 0.00 0.00 0.00 17 1014.4
20260507205520 64 176 0.0 3.5 0.00 0.00 0.00 18 1014.5
20260507205018 63 193 0.0 12.2 0.00 0.00 0.00 19 1014.7
20260507204518 63 223 2.6 12.2 0.00 0.00 0.00 18 1014.8
20260507204018 63 234 3.5 12.2 0.00 0.00 0.00 18 1014.9
20260507203516 62 223 0.0 2.6 0.00 0.00 0.00 19 1015.0
20260507203015 61 193 0.0 7.0 0.00 0.00 0.00 20 1015.2
20260507202513 60 213 0.0 13.0 0.00 0.00 0.00 19 1015.4
20260507202112 60 209 0.0 13.0 0.00 0.00 0.00 19 1015.4
20260507201512 61 215 0.0 7.8 0.00 0.00 0.00 18 1015.6
20260507201011 61 217 1.7 9.6 0.00 0.00 0.00 18 1015.7
20260507200510 61 213 0.0 13.9 0.00 0.00 0.00 20 1015.8
20260507200010 60 238 0.0 13.9 0.00 0.00 0.00 18 1016.0
20260507195512 59 238 0.0 8.7 0.00 0.00 0.00 18 1016.0
20260507195007 60 238 0.0 9.6 0.00 0.00 0.00 18 1016.2
20260507194508 60 217 0.0 9.6 0.00 0.00 0.00 19 1016.2
20260507194006 60 219 0.0 4.3 0.00 0.00 0.00 18 1016.3
20260507193506 60 212 0.0 1.7 0.00 0.00 0.00 18 1016.5
20260507193005 59 221 0.0 1.7 0.00 0.00 0.00 19 1016.5
20260507192502 59 259 0.0 9.6 0.00 0.00 0.00 19 1016.6
20260507192001 58 253 0.0 9.6 0.00 0.00 0.00 20 1016.6
20260507191601 57 171 0.0 8.7 0.00 0.00 0.00 19 1016.7
20260507191059 56 250 0.0 13.0 0.00 0.00 0.00 19 1016.9
20260507190559 57 234 0.0 8.7 0.00 0.00 0.00 18 1017.0
20260507190059 57 219 0.9 8.7 0.00 0.00 0.00 18 1017.0
20260507185557 56 237 0.0 0.9 0.00 0.04 0.00 21 1017.1
20260507185056 56 236 0.0 9.6 0.00 0.04 0.00 19 1017.2
20260507184605 57 222 0.0 12.2 0.00 0.04 0.00 18 1017.3
20260507184054 57 203 0.0 12.2 0.00 0.04 0.00 18 1017.3
20260507183553 57 219 0.0 2.6 0.00 0.04 0.00 20 1017.4
20260507183052 57 211 0.0 9.6 0.00 0.04 0.00 18 1017.7
20260507182553 56 215 0.0 9.6 0.00 0.04 0.00 19 1017.7
20260507182051 56 221 0.0 3.5 0.00 0.04 0.00 18 1017.7
20260507181551 56 223 0.0 3.5 0.00 0.04 0.00 19 1017.8
20260507181049 56 153 0.0 0.0 0.00 0.04 0.00 20 1017.9
20260507180553 55 204 0.0 0.0 0.00 0.04 0.00 19 1018.1
20260507180049 55 217 0.0 0.9 0.00 0.04 0.00 21 1018.3
20260507175548 54 189 0.0 0.9 0.00 0.04 0.00 19 1018.3
20260507175046 54 209 0.0 1.7 0.00 0.04 0.00 19 1018.4
20260507174550 54 218 0.0 6.1 0.00 0.04 0.00 20 1018.5
20260507174045 55 257 0.0 6.1 0.00 0.04 0.00 21 1018.5
20260507173544 54 215 0.0 0.9 0.00 0.04 0.00 22 1018.5
20260507173045 54 215 0.0 0.9 0.00 0.04 0.00 19 1018.5
20260507172543 55 147 0.0 0.0 0.00 0.04 0.00 19 1018.6
20260507172043 55 145 0.0 0.0 0.00 0.04 0.00 19 1018.7
20260507171549 55 210 0.0 0.0 0.00 0.04 0.00 19 1018.8
20260507171042 55 210 0.0 0.0 0.00 0.04 0.00 19 1018.9
20260507170543 54 213 0.0 0.0 0.00 0.04 0.00 21 1018.9
20260507170041 53 213 0.0 0.0 0.00 0.04 0.00 22 1019.0
20260507165539 51 215 0.0 0.9 0.00 0.04 0.00 23 1019.1
20260507165039 51 223 0.0 0.9 0.00 0.04 0.00 20 1019.1
20260507164539 52 255 0.0 0.9 0.00 0.04 0.00 21 1019.3
20260507164039 51 234 0.0 0.0 0.00 0.04 0.00 23 1019.3
20260507163540 51 234 0.0 6.1 0.00 0.04 0.00 19 1019.4
20260507163038 51 240 0.0 0.0 0.00 0.04 0.00 21 1019.5
20260507162538 51 227 0.0 7.8 0.00 0.04 0.00 20 1019.5
20260507162038 51 247 0.0 7.8 0.00 0.04 0.00 19 1019.4
20260507161540 52 150 0.0 0.0 0.00 0.04 0.00 21 1019.5
20260507161036 52 150 0.0 0.0 0.00 0.04 0.00 20 1019.5
20260507160537 52 143 0.0 0.0 0.00 0.04 0.00 20 1019.6
20260507160136 52 154 0.0 0.0 0.00 0.04 0.00 22 1019.6
20260507155534 51 100 0.0 0.0 0.00 0.04 0.00 22 1019.7
20260507155034 51 96 0.0 0.0 0.00 0.04 0.00 23 1019.7
20260507154535 50 95 0.0 0.0 0.00 0.04 0.00 23 1019.7
20260507154030 50 95 0.0 0.0 0.00 0.04 0.00 22 1019.8
20260507153529 49 91 0.0 0.0 0.00 0.04 0.00 25 1019.9